| time (UTC) | temp F | wind direction | speed knots | gust knots | rain 1hr in | rain 24hr in | rain mn in | humidity % | barometer mb |
| 20260504081539 | 59 | 49 | 0.0 | 0.9 | 0.00 | 0.00 | 0.00 | 72 | 1009.7 |
| 20260504070248 | 65 | 254 | 0.0 | 0.0 | 0.00 | 0.00 | 0.00 | 60 | 1010.0 |
| 20260504045943 | 69 | 6 | 0.0 | 2.6 | 0.00 | 0.00 | 0.00 | 55 | 1009.6 |
| 20260504042735 | 70 | 6 | 0.9 | 2.6 | 0.00 | 0.00 | 0.00 | 52 | 1009.5 |
| 20260504041741 | 70 | 350 | 0.9 | 2.6 | 0.00 | 0.00 | 0.00 | 53 | 1009.5 |
| 20260504040710 | 70 | 6 | 0.9 | 2.6 | 0.00 | 0.00 | 0.00 | 54 | 1009.4 |
| 20260504035728 | 71 | 337 | 0.9 | 2.6 | 0.00 | 0.00 | 0.00 | 53 | 1009.4 |
| 20260504034716 | 72 | 359 | 0.9 | 2.6 | 0.00 | 0.00 | 0.00 | 53 | 1009.3 |
| 20260504033703 | 73 | 354 | 0.9 | 2.6 | 0.00 | 0.00 | 0.00 | 50 | 1009.3 |
| 20260504031623 | 74 | 295 | 0.9 | 3.5 | 0.00 | 0.00 | 0.00 | 48 | 1009.2 |
| 20260504030615 | 75 | 294 | 0.9 | 2.6 | 0.00 | 0.00 | 0.00 | 47 | 1009.3 |
| 20260504025626 | 76 | 288 | 0.9 | 3.5 | 0.00 | 0.00 | 0.00 | 46 | 1009.2 |
| 20260504024649 | 76 | 328 | 0.9 | 5.2 | 0.00 | 0.00 | 0.00 | 45 | 1009.3 |
| 20260504023709 | 76 | 333 | 1.7 | 7.0 | 0.00 | 0.00 | 0.00 | 45 | 1009.2 |
| 20260504022709 | 77 | 353 | 1.7 | 7.0 | 0.00 | 0.00 | 0.00 | 44 | 1009.3 |
| 20260504021714 | 78 | 302 | 0.9 | 6.1 | 0.00 | 0.00 | 0.00 | 44 | 1009.3 |
| 20260504020656 | 78 | 290 | 2.6 | 7.0 | 0.00 | 0.00 | 0.00 | 44 | 1009.3 |
| 20260504014533 | 80 | 290 | 2.6 | 6.1 | 0.00 | 0.00 | 0.00 | 42 | 1009.4 |
| 20260504013458 | 81 | 340 | 3.5 | 7.8 | 0.00 | 0.00 | 0.00 | 41 | 1009.4 |
| 20260504012453 | 81 | 278 | 2.6 | 7.8 | 0.00 | 0.00 | 0.00 | 39 | 1009.4 |
| 20260504011509 | 82 | 306 | 2.6 | 7.0 | 0.00 | 0.00 | 0.00 | 40 | 1009.5 |
| 20260504005253 | 83 | 319 | 1.7 | 6.1 | 0.00 | 0.00 | 0.00 | 39 | 1009.7 |
| 20260504004240 | 83 | 337 | 2.6 | 6.1 | 0.00 | 0.00 | 0.00 | 38 | 1009.8 |
| 20260504003258 | 83 | 320 | 2.6 | 6.1 | 0.00 | 0.00 | 0.00 | 39 | 1009.9 |
| 20260504002304 | 82 | 294 | 2.6 | 7.0 | 0.00 | 0.00 | 0.00 | 40 | 1010.0 |
| 20260504001250 | 82 | 300 | 2.6 | 7.8 | 0.00 | 0.00 | 0.00 | 40 | 1010.1 |
| 20260504000248 | 83 | 342 | 1.7 | 7.8 | 0.00 | 0.00 | 0.00 | 41 | 1010.2 |
| 20260503235304 | 82 | 320 | 2.6 | 7.8 | 0.00 | 0.00 | 0.00 | 40 | 1010.2 |
| 20260503234312 | 83 | 300 | 2.6 | 7.8 | 0.00 | 0.00 | 0.00 | 40 | 1010.3 |
| 20260503233254 | 82 | 296 | 1.7 | 7.0 | 0.00 | 0.00 | 0.00 | 40 | 1010.4 |
| 20260503232316 | 83 | 298 | 1.7 | 7.0 | 0.00 | 0.00 | 0.00 | 41 | 1010.5 |
| 20260503230140 | 83 | 345 | 1.7 | 8.7 | 0.00 | 0.00 | 0.00 | 40 | 1010.8 |
| 20260503225106 | 81 | 301 | 3.5 | 9.6 | 0.00 | 0.00 | 0.00 | 42 | 1011.0 |
| 20260503224109 | 82 | 1 | 2.6 | 9.6 | 0.00 | 0.00 | 0.00 | 41 | 1011.1 |
| 20260503223039 | 83 | 319 | 2.6 | 7.8 | 0.00 | 0.00 | 0.00 | 40 | 1011.2 |
| 20260503215736 | 82 | 304 | 1.7 | 7.8 | 0.00 | 0.00 | 0.00 | 40 | 1011.4 |
| 20260503214746 | 82 | 338 | 2.6 | 7.8 | 0.00 | 0.00 | 0.00 | 42 | 1011.5 |
| 20260503213757 | 81 | 286 | 1.7 | 7.0 | 0.00 | 0.00 | 0.00 | 41 | 1011.6 |
| 20260503212729 | 80 | 349 | 2.6 | 7.0 | 0.00 | 0.00 | 0.00 | 43 | 1011.7 |
| 20260503211726 | 80 | 339 | 2.6 | 7.8 | 0.00 | 0.00 | 0.00 | 43 | 1011.8 |
| 20260503210723 | 79 | 280 | 2.6 | 7.8 | 0.00 | 0.00 | 0.00 | 44 | 1011.8 |
| 20260503205721 | 79 | 347 | 2.6 | 7.0 | 0.00 | 0.00 | 0.00 | 46 | 1012.0 |
| 20260503203627 | 78 | 325 | 2.6 | 7.0 | 0.00 | 0.00 | 0.00 | 44 | 1012.2 |
| 20260503202630 | 78 | 359 | 2.6 | 7.8 | 0.00 | 0.00 | 0.00 | 45 | 1012.3 |
| 20260503200501 | 77 | 291 | 2.6 | 7.0 | 0.00 | 0.00 | 0.00 | 47 | 1012.5 |
| 20260503194339 | 77 | 18 | 1.7 | 7.0 | 0.00 | 0.00 | 0.00 | 48 | 1012.8 |
| 20260503193325 | 75 | 279 | 2.6 | 7.8 | 0.00 | 0.00 | 0.00 | 49 | 1012.9 |
| 20260503192310 | 75 | 296 | 3.5 | 7.8 | 0.00 | 0.00 | 0.00 | 48 | 1013.0 |
| 20260503191239 | 76 | 330 | 2.6 | 7.0 | 0.00 | 0.00 | 0.00 | 47 | 1013.2 |
| 20260503190229 | 76 | 359 | 2.6 | 7.0 | 0.00 | 0.00 | 0.00 | 48 | 1013.4 |
| 20260503185229 | 77 | 31 | 1.7 | 4.3 | 0.00 | 0.00 | 0.00 | 48 | 1013.4 |
| 20260503184209 | 76 | 126 | 0.9 | 4.3 | 0.00 | 0.00 | 0.00 | 50 | 1013.6 |
| 20260503183231 | 75 | 53 | 0.0 | 1.7 | 0.00 | 0.00 | 0.00 | 54 | 1013.7 |
| 20260503175942 | 71 | 352 | 0.9 | 3.5 | 0.00 | 0.00 | 0.00 | 57 | 1013.9 |
| 20260503174927 | 70 | 332 | 0.9 | 4.3 | 0.00 | 0.00 | 0.00 | 60 | 1014.1 |
| 20260503173942 | 70 | 23 | 0.9 | 4.3 | 0.00 | 0.00 | 0.00 | 59 | 1014.1 |
| 20260503171903 | 68 | 284 | 0.9 | 4.3 | 0.00 | 0.00 | 0.00 | 63 | 1014.3 |
| 20260503170850 | 67 | 271 | 1.7 | 4.3 | 0.00 | 0.00 | 0.00 | 64 | 1014.4 |
| 20260503131202 | 52 | 44 | 0.0 | 1.7 | 0.00 | 0.00 | 0.00 | 86 | 1014.7 |
| 20260503130142 | 52 | 37 | 0.0 | 0.0 | 0.00 | 0.00 | 0.00 | 85 | 1014.7 |
| 20260503110707 | 54 | 37 | 0.9 | 0.9 | 0.00 | 0.00 | 0.00 | 82 | 1014.9 |